Regional Weather Roundup
Issued by NWS

Home | Current Version | Previous Version | Text Only | Print | Product List | Glossary Off
Versions: 1 2 3 4 5 6 7 8 9 10 11 12 13 14 15 16 17 18 19 20 21 22 23 24 25 26 27 28 29 30 31 32 33 34 35 36 37 38 39 40 41 42 43 44 45 46 47 48 49 50

000
ASUS43 KIND 210009
RWRIN

WEATHER ROUNDUP FOR INDIANA
NATIONAL WEATHER SERVICE INDIANAPOLIS IN
800 PM EDT FRI OCT 20 2017

NOTE: "FAIR" INDICATES FEW OR NO CLOUDS BELOW 12,000 FEET WITH NO
SIGNIFICANT WEATHER AND/OR OBSTRUCTIONS TO VISIBILITY.

* - STATION DOES NOT REPORT WEATHER SUCH AS PRECIPITATION OR FOG.

+ - STATION NOT QUALITY CONTROLLED BY THE NATIONAL WEATHER SERVICE.
    USE DATA WITH CAUTION...ESPECIALLY DEWPOINT AND RELATIVE
    HUMIDITY OBSERVATIONS.

INZ001>003-010>013-019-020-210100-
NORTHWEST INDIANA

CITY           SKY/WX    TMP DP  RH WIND       PRES   REMARKS
GARY /AIRPORT/ MOCLDY    70  48  46 VRB5      30.08S
KNOX *+        CLEAR     61  48  63 S6        30.11R
LA PORTE +     CLEAR     66  50  55 S5        30.11S
6HR MIN TEMP:  66; 6HR MAX TEMP:  77;

MICHIGAN CITY+ CLEAR     64  50  59 S5        30.10S
MONTICELLO +   CLEAR     65  49  57 SE3       30.12S
6HR MIN TEMP:  65; 6HR MAX TEMP:  76;

RENSSELAER +   CLEAR     64  39  39 SE6       30.11S
VALPARAISO     CLEAR     68  50  52 S6        30.11R
6HR MIN TEMP:  68; 6HR MAX TEMP:  79;


$$

LMZ046-743>745-210100-
SOUTHERN LAKE MICHIGAN

STATION/POSITION TIME  TEMP    WIND        PRES    WAVE
                       AIR SEA DIR/SP/G            HT
                 (UTC) (F)     (DEG/KT/KT) (MB)    (FT)
BURNS HARBOR     2340   71     180/  8/ 14 1019.0S
MICHIGAN CITY    2340   71     150/  9/ 10   N/A
5NW MICH CITY    0000   65 59  150/  6/  8   N/A     1

$$

INZ004-005-014>016-021>024-210100-
NORTH CENTRAL INDIANA

CITY           SKY/WX    TMP DP  RH WIND       PRES   REMARKS
ELKHART        CLEAR     63  50  63 CALM      30.12S
GOSHEN         CLEAR     65  49  56 S8        30.13R
6HR MIN TEMP:  64; 6HR MAX TEMP:  76;

LOGANSPORT +   CLEAR     61  46  59 S6        30.14S
PERU/GRISSOM   CLEAR     62  50  63 S7        30.14R
6HR MIN TEMP:  62; 6HR MAX TEMP:  77;

SOUTH BEND     CLEAR     64  51  62 S7        30.12S
6HR MIN TEMP:  64; 6HR MAX TEMP:  76; 6HR PCP: TRACE;

WARSAW +       CLEAR     64  50  59 CALM      30.14R

$$

INZ006>009-017-018-025>027-210100-
NORTHEAST INDIANA

CITY           SKY/WX    TMP DP  RH WIND       PRES   REMARKS
AUBURN +       CLEAR     61  50  67 CALM      30.16S
FORT WAYNE     PTCLDY    62  49  62 SE7       30.16R
6HR MIN TEMP:  61; 6HR MAX TEMP:  77;

HUNTINGTON +   CLEAR     64  49  58 CALM      30.15S
6HR MIN TEMP:  64; 6HR MAX TEMP:  76;

KENDALLVILLE + CLEAR     62  51  67 S5        30.15S

$$

INZ028-029-035-036-043>045-051>053-210100-
WEST CENTRAL INDIANA

CITY           SKY/WX    TMP DP  RH WIND       PRES   REMARKS
CRAWFORDSVL +  CLOUDY    59  48  67 S6        30.14S
GREENCASTLE +  CLOUDY    63  46  55 CALM      30.15S
LAFAYETTE      CLEAR     62  50  64 CALM      30.12S
6HR MIN TEMP:  62; 6HR MAX TEMP:  76;

TERRE HAUTE    CLOUDY    64  49  57 S6        30.14R
6HR MIN TEMP:  64; 6HR MAX TEMP:  77;


$$

INZ030>032-037>040-046>048-054>057-064-065-210100-
CENTRAL INDIANA

CITY           SKY/WX    TMP DP  RH WIND       PRES   REMARKS
CP ATTERBURY + CLEAR     61  52  72 S3        30.18R
COLUMBUS       CLEAR     63  45  51 SE7       30.18R
FRANKFORT +    CLOUDY    61  49  65 CALM      30.16S
6HR MIN TEMP:  61; 6HR MAX TEMP:  79;

GREENWOOD *+   CLEAR     70  53  55 SE6       30.17S
INDIANAPOLIS   PTCLDY    65  49  56 SE6       30.15F
6HR MIN TEMP:  65; 6HR MAX TEMP:  76;

-EAGLE CREEK   CLEAR     63  48  58 SE3       30.15S
6HR MIN TEMP:  62; 6HR MAX TEMP:  76;

KOKOMO +       CLEAR     61  50  67 S5        30.16R
6HR MIN TEMP:  60; 6HR MAX TEMP:  77;

MT COMFORT *+  CLEAR     63  54  72 S5        30.17S
SHELBYVILLE    CLEAR     59  47  64 SE6       30.16S
6HR MIN TEMP:  59; 6HR MAX TEMP:  77;

ZIONSVILLE +   CLEAR     59  48  67 CALM      30.16S
6HR MIN TEMP:  59; 6HR MAX TEMP:  74;


$$

INZ033-034-041-042-049-050-058-059-210100-
EAST CENTRAL INDIANA

CITY           SKY/WX    TMP DP  RH WIND       PRES   REMARKS
MUNCIE         CLEAR     60  49  66 S5        30.17R
6HR MIN TEMP:  59; 6HR MAX TEMP:  79;

RICHMOND +     CLEAR     59  50  72 S7        30.21R

$$

INZ060-061-067>069-081>083-085>088-210100-
SOUTHWEST INDIANA

CITY           SKY/WX    TMP DP  RH WIND       PRES   REMARKS
EVANSVILLE     CLOUDY    65  50  58 SE5       30.15S
6HR MIN TEMP:  64; 6HR MAX TEMP:  77;

HUNTINGBURG +  CLOUDY    62  52  69 SE3       30.16R
6HR MIN TEMP:  62; 6HR MAX TEMP:  77;

WASHINGTON +   PTCLDY    59  46  62 S5        30.15S
6HR MIN TEMP:  59; 6HR MAX TEMP:  78;


$$

INZ062-063-066-070>080-084-089>092-210100-
SOUTH CENTRAL AND SOUTHEAST INDIANA

CITY           SKY/WX    TMP DP  RH WIND       PRES   REMARKS
BLOOMINGTON    CLEAR     63  49  60 CALM      30.16S
6HR MIN TEMP:  61; 6HR MAX TEMP:  77;

MADISON *+     CLEAR     57  50  77 CALM      30.21S
NORTH VERNON + CLEAR     54  50  87 CALM      30.19R
SEYMOUR +      CLEAR     63  46  55 CALM      30.17F

$$





USA.gov is the U.S. government's official web portal to all federal, state and local government web resources and services.